| time (UTC) | temp C | wind direction | speed KPH | gust KPH | rain 1hr cm | rain 24hr cm | rain mn cm | humidity % | barometer mb |
| 20260507145502 | 20 | 104 | 4.8 | 0.0 | 0.00 | 0.00 | 0.00 | 59 | 1011.0 |
| 20260507135502 | 22 | 50 | 4.8 | 0.0 | 0.00 | 0.00 | 0.00 | 55 | 1010.0 |
| 20260507125502 | 23 | 217 | 1.6 | 0.0 | 0.00 | 0.00 | 0.00 | 47 | 1011.0 |
| 20260507115502 | 23 | 233 | 4.8 | 0.0 | 0.00 | 0.00 | 0.00 | 47 | 1011.0 |
| 20260507105501 | 22 | 298 | 6.4 | 0.0 | 0.00 | 0.00 | 0.00 | 46 | 1011.0 |
| 20260507095502 | 22 | 295 | 8.0 | 0.0 | 0.00 | 0.00 | 0.00 | 49 | 1011.0 |
| 20260507085502 | 22 | 290 | 8.0 | 0.0 | 0.00 | 0.00 | 0.00 | 52 | 1011.0 |
| 20260507075502 | 21 | 277 | 9.7 | 0.0 | 0.00 | 0.00 | 0.00 | 56 | 1011.0 |
| 20260507065502 | 20 | 260 | 9.7 | 0.0 | 0.00 | 0.00 | 0.00 | 59 | 1011.0 |
| 20260507055503 | 19 | 251 | 9.7 | 0.0 | 0.00 | 0.00 | 0.00 | 64 | 1011.0 |
| 20260507045502 | 18 | 247 | 8.0 | 0.0 | 0.00 | 0.00 | 0.00 | 68 | 1011.0 |
| 20260507035502 | 16 | 259 | 4.8 | 0.0 | 0.00 | 0.00 | 0.00 | 73 | 1011.0 |
| 20260507025502 | 15 | 285 | 3.2 | 0.0 | 0.00 | 0.00 | 0.00 | 77 | 1011.0 |
| 20260507015502 | 13 | 320 | 3.2 | 0.0 | 0.00 | 0.00 | 0.00 | 83 | 1011.0 |
| 20260507005502 | 12 | 321 | 4.8 | 0.0 | 0.00 | 0.00 | 0.00 | 88 | 1011.0 |
| 20260506235502 | 12 | 315 | 3.2 | 0.0 | 0.00 | 0.00 | 0.00 | 89 | 1011.0 |
| 20260506225501 | 13 | 318 | 3.2 | 0.0 | 0.00 | 0.00 | 0.00 | 89 | 1011.0 |
| 20260506215502 | 13 | 5 | 1.6 | 0.0 | 0.00 | 0.00 | 0.00 | 87 | 1010.0 |
| 20260506205501 | 13 | 168 | 3.2 | 0.0 | 0.00 | 0.00 | 0.00 | 86 | 1010.0 |
| 20260506195502 | 13 | 155 | 8.0 | 0.0 | 0.00 | 0.00 | 0.00 | 82 | 1011.0 |
| 20260506185502 | 14 | 145 | 8.0 | 0.0 | 0.00 | 0.00 | 0.00 | 77 | 1011.0 |
| 20260506175502 | 14 | 136 | 9.7 | 0.0 | 0.00 | 0.00 | 0.00 | 70 | 1012.0 |
| 20260506165502 | 15 | 136 | 11.3 | 0.0 | 0.00 | 0.00 | 0.00 | 67 | 1013.0 |
| 20260506155502 | 15 | 131 | 9.7 | 0.0 | 0.00 | 0.00 | 0.00 | 65 | 1013.0 |